FW0539 Weather Reports


time (UTC)temp
F
wind
direction
speed
knots
gust
knots
rain 1hr
in
rain 24hr
in
rain mn
in
humidity
%
barometer
mb
20260506113029 50 168 0.0 0.9 0.00 0.00 0.00 94 1002.3
20260506111605 51 168 0.9 2.6 0.00 0.00 0.00 93 1002.1
20260506110053 51 168 0.0 1.7 0.00 0.00 0.00 92 1001.8
20260506104556 52 144 0.0 1.7 0.00 0.00 0.00 91 1001.6
20260506103044 53 223 1.7 3.5 0.00 0.00 0.00 86 1001.5
20260506101549 54 34 1.7 2.6 0.00 0.00 0.00 86 1001.3
20260506100042 54 55 0.0 1.7 0.00 0.00 0.00 86 1001.3
20260506094510 54 35 0.9 2.6 0.00 0.00 0.00 85 1001.4
20260506093012 55 273 1.7 4.3 0.00 0.00 0.00 85 1001.3
20260506091510 55 78 0.0 2.6 0.00 0.00 0.00 85 1001.2
20260506090007 55 92 0.9 2.6 0.00 0.00 0.00 86 1001.2
20260506084509 55 84 0.9 3.5 0.00 0.00 0.00 86 1001.2
20260506083009 55 71 0.0 1.7 0.00 0.00 0.00 86 1001.3
20260506081503 55 100 1.7 3.5 0.00 0.00 0.00 86 1001.2
20260506073100 55 51 1.7 3.5 0.00 0.00 0.00 87 1001.2
20260506071556 54 55 1.7 2.6 0.00 0.00 0.00 89 1001.2
20260506061556 54 53 1.7 3.5 0.00 0.00 0.00 89 1000.9
20260506044516 54 101 0.0 0.9 0.00 0.00 0.00 88 1000.3
20260506043010 54 101 0.0 0.9 0.00 0.00 0.00 88 1000.3
20260506041508 54 101 0.0 0.9 0.00 0.00 0.00 89 1000.0
20260506040006 54 101 0.0 0.9 0.00 0.00 0.00 89 1000.0
20260506034505 54 101 0.0 1.7 0.00 0.00 0.00 89 999.8
20260506033004 54 101 0.0 0.9 0.00 0.00 0.00 88 999.5
20260506031504 55 100 0.0 0.9 0.00 0.00 0.00 87 999.4
20260506030001 55 100 0.9 2.6 0.00 0.00 0.00 87 999.3
20260506024502 55 264 0.0 1.7 0.00 0.00 0.00 86 999.4
20260506023101 56 281 2.6 3.5 0.00 0.00 0.00 85 999.3
20260506021608 56 360 2.6 5.2 0.00 0.00 0.00 84 999.3
20260506020058 56 278 1.7 5.2 0.00 0.00 0.00 84 999.3
20260506014558 57 284 3.5 6.1 0.00 0.00 0.00 83 999.2
20260506013027 56 284 3.5 7.8 0.00 0.00 0.00 83 999.0
20260506011529 56 281 2.6 7.0 0.00 0.00 0.00 83 999.0
20260506010115 56 15 1.7 5.2 0.00 0.00 0.00 84 999.1
20260506004554 56 223 0.0 4.3 0.00 0.00 0.00 84 999.0
20260506003024 56 33 1.7 4.3 0.00 0.00 0.00 86 999.1
20260506001523 55 284 3.5 5.2 0.00 0.00 0.00 85 999.1
20260506000022 56 42 2.6 4.3 0.00 0.00 0.00 85 999.1
20260505234533 55 26 3.5 5.2 0.00 0.00 0.00 85 999.3
20260505233023 55 21 2.6 5.2 0.00 0.00 0.00 85 999.3
20260505231517 55 11 1.7 4.3 0.00 0.00 0.00 87 999.3
20260505230014 55 21 2.6 6.1 0.00 0.00 0.00 87 999.3
20260505224513 55 360 2.6 5.2 0.00 0.00 0.00 88 999.4
20260505223012 54 5 2.6 4.3 0.00 0.00 0.00 88 999.5
20260505221513 54 360 1.7 5.2 0.00 0.00 0.00 88 999.6
20260505220009 54 42 3.5 7.0 0.00 0.00 0.00 88 999.7
20260505214510 55 271 1.7 4.3 0.00 0.00 0.00 88 999.7
20260505213008 54 264 1.7 5.2 0.00 0.00 0.00 88 999.7
20260505211507 54 284 0.9 3.5 0.00 0.00 0.00 88 999.7
20260505210003 54 284 1.7 4.3 0.00 0.00 0.00 89 999.7
20260505204501 54 257 2.6 6.1 0.00 0.00 0.00 90 999.8
20260505203100 54 46 2.6 4.3 0.00 0.00 0.00 91 999.8
20260505203003 54 17 2.6 4.3 0.00 0.00 0.00 91 999.8
20260505201601 53 13 1.7 3.5 0.00 0.00 0.00 92 999.7
20260505200105 53 12 1.7 4.3 0.00 0.00 0.00 92 999.8
20260505194605 53 257 0.9 3.5 0.00 0.00 0.00 93 999.8
20260505193053 52 196 1.7 4.3 0.00 0.00 0.00 94 999.8
20260505191556 52 205 1.7 3.5 0.00 0.00 0.00 95 999.8
20260505190023 52 205 0.0 7.0 0.00 0.00 0.00 97 999.7
20260505184523 51 178 1.7 4.3 0.00 0.00 0.00 97 999.8
20260505183018 51 192 1.7 4.3 0.00 0.00 0.00 98 999.8
20260505181514 51 175 3.5 6.1 0.00 0.00 0.00 98 999.8
20260505180017 50 207 4.3 6.1 0.00 0.00 0.00 98 999.6
20260505174521 49 197 0.9 3.5 0.00 0.00 0.00 98 999.6
20260505173012 49 205 2.6 5.2 0.00 0.00 0.00 98 999.5
20260505171510 49 203 2.6 4.3 0.00 0.00 0.00 98 999.5
20260505170006 49 181 2.6 4.3 0.00 0.00 0.00 98 999.4
20260505164503 48 144 2.6 4.3 0.00 0.00 0.00 98 999.3
20260505163105 48 193 2.6 6.1 0.00 0.00 0.00 98 999.2
20260505161536 48 168 2.6 5.2 0.00 0.00 0.00 98 999.3
20260505153029 48 187 3.5 7.0 0.00 0.00 0.00 98 999.2
20260505151525 48 196 4.3 6.1 0.00 0.00 0.00 98 999.1
20260505124539 48 153 6.1 7.8 0.00 0.00 0.00 97 998.2
20260505123036 48 158 7.0 8.7 0.00 0.00 0.00 97 998.1
20260505121533 48 155 6.1 7.8 0.00 0.00 0.00 97 998.0
20260505120033 48 155 5.2 8.7 0.00 0.00 0.00 97 997.9
20260505114531 48 163 7.0 8.7 0.00 0.00 0.00 97 997.8